Skip Page Navigation
NASA JPL Caltech
NASA Logo - Jet Propulsion Laboratory + View the NASA Portal
+ Center for Near-Earth Object Studies
JPL Home Earth Solar System Stars & Galaxies Technology
JPL Solar System Dynamics
BODIES ORBITS EPHEMERIDES TOOLS PHYSICAL DATA DISCOVERY FAQ SITE MAP
JPL Small-Body Database Browser
Search: [ help ]  
332588 (2008 SC153)
Classification: Main-belt Asteroid          SPK-ID: 2332588
Ephemeris | Orbit Diagram | Orbital Elements | Mission Design | Physical Parameters | Discovery Circumstances | Close-Approach Data ]

[ show orbit diagram ]
Orbital Elements at Epoch 2459000.5 (2020-May-31.0) TDB
Reference: JPL 13 (heliocentric ecliptic J2000)
 Element Value Uncertainty (1-sigma)   Units 
e .2927065932445039 5.7492e-08  
a 2.662066893351065 3.3854e-08 au
q 1.882862362009295 1.6282e-07 au
i 11.20164065066817 1.2446e-05 deg
node 2.262381061285719 3.2391e-05 deg
peri 277.2955148028412 3.951e-05 deg
M 297.2738947778509 2.6231e-05 deg
tp 2459276.922057289249
(2021-Mar-03.42205729)
0.00011882 TDB
period 1586.451769509694
4.34
3.0263e-05
8.286e-08
d
yr
n .2269214904095451 4.3287e-09 deg/d
Q 3.441271424692835 4.3763e-08 au
  Orbit Determination Parameters
   # obs. used (total)      198  
   data-arc span      8973 days (24.57 yr)  
   first obs. used      1995-09-28  
   last obs. used      2020-04-22  
   planetary ephem.      DE431  
   SB-pert. ephem.      SB431-N16  
   condition code      0  
   norm. resid. RMS      .57604  
   source      ORB  
   producer      Otto Matic  
   solution date      2020-May-21 21:30:10  

Additional Information
 Earth MOID = .906706 au 
 Jupiter MOID = 1.90943 au 
 T_jup = 3.296 
[ show covariance matrix ]

Ephemeris | Orbit Diagram | Orbital Elements | Mission Design | Physical Parameters | Discovery Circumstances | Close-Approach Data ]

Physical Parameter Table
Parameter Symbol Value Units Sigma Reference Notes
absolute magnitude H 16.7   n/a MPO427708  

332588 (2008 SC153)          Discovered 2008-Sep-22 by LINEAR at Socorro
Reference: 20120703/Numbers.arcLast Updated: 2012-07-09

[ show close-approach data ]
Ephemeris | Orbit Diagram | Orbital Elements | Mission Design | Physical Parameters | Discovery Circumstances | Close-Approach Data ]
ABOUT SSD CREDITS/AWARDS PRIVACY/COPYRIGHT GLOSSARY LINKS
FirstGov 2020-Sep-29 14:58 UT
(server date/time)  
NASA Home Page
Site Manager:   Ryan S. Park
Webmaster  Alan B. Chamberlin